Time,TemperatureF,DewpointF,PressureIn,WindDirection,WindDirectionDegrees,WindSpeedMPH,WindSpeedGustMPH,Humidity,HourlyPrecipIn,Conditions,Clouds,dailyrainin,SoftwareType,DateUTC
2013-11-11 00:00:00,30.5,26.2,30.37,SSW,199,1.0,1.0,84,0.00,,,0.00,Wunderground v.1.15,2013-11-11 05:00:00,
2013-11-11 00:05:00,30.5,26.0,30.37,SSW,199,1.0,1.0,83,0.00,,,0.00,Wunderground v.1.15,2013-11-11 05:05:00,
2013-11-11 00:10:00,30.3,26.0,30.36,SSW,199,0.0,0.0,84,0.00,,,0.00,Wunderground v.1.15,2013-11-11 05:10:00,
2013-11-11 00:15:00,30.0,25.8,30.37,SSW,200,0.0,0.0,84,0.00,,,0.00,Wunderground v.1.15,2013-11-11 05:15:00,
2013-11-11 00:20:00,29.8,25.6,30.37,SSW,200,0.0,0.0,84,0.00,,,0.00,Wunderground v.1.15,2013-11-11 05:20:00,
2013-11-11 00:25:00,30.0,25.8,30.37,SSW,200,0.0,0.0,84,0.00,,,0.00,Wunderground v.1.15,2013-11-11 05:25:00,
2013-11-11 00:30:00,29.9,25.7,30.37,SSW,200,0.0,0.0,84,0.00,,,0.00,Wunderground v.1.15,2013-11-11 05:30:00,
2013-11-11 00:35:00,29.9,25.7,30.37,SSW,200,0.0,0.0,84,0.00,,,0.00,Wunderground v.1.15,2013-11-11 05:35:00,
2013-11-11 00:40:00,29.9,25.9,30.37,SW,216,0.0,2.0,85,0.00,,,0.00,Wunderground v.1.15,2013-11-11 05:40:00,
2013-11-11 00:45:00,30.0,26.0,30.37,SW,217,1.0,2.0,85,0.00,,,0.00,Wunderground v.1.15,2013-11-11 05:45:00,
2013-11-11 00:55:00,29.8,25.8,30.37,SW,217,0.0,0.0,85,0.00,,,0.00,Wunderground v.1.15,2013-11-11 05:55:00,
2013-11-11 01:00:00,29.6,25.6,30.37,SW,217,0.0,0.0,85,0.00,,,0.00,Wunderground v.1.15,2013-11-11 06:00:00,
2013-11-11 01:05:00,29.4,25.4,30.38,SW,217,0.0,0.0,85,0.00,,,0.00,Wunderground v.1.15,2013-11-11 06:05:00,
2013-11-11 01:10:00,29.2,25.3,30.38,SW,217,0.0,0.0,85,0.00,,,0.00,Wunderground v.1.15,2013-11-11 06:10:00,
2013-11-11 01:20:00,29.3,25.4,30.38,SW,219,1.0,1.0,85,0.00,,,0.00,Wunderground v.1.15,2013-11-11 06:20:00,
2013-11-11 01:25:00,29.6,25.6,30.38,SW,219,0.0,1.0,85,0.00,,,0.00,Wunderground v.1.15,2013-11-11 06:25:00,
2013-11-11 01:30:00,29.3,25.1,30.38,SW,219,0.0,0.0,84,0.00,,,0.00,Wunderground v.1.15,2013-11-11 06:30:00,
2013-11-11 01:40:00,28.7,24.8,30.39,SW,219,0.0,1.0,85,0.00,,,0.00,Wunderground v.1.15,2013-11-11 06:40:00,
2013-11-11 01:45:00,28.6,24.9,30.39,SW,219,0.0,1.0,86,0.00,,,0.00,Wunderground v.1.15,2013-11-11 06:45:00,
2013-11-11 01:55:00,28.4,24.7,30.39,SW,219,0.0,0.0,86,0.00,,,0.00,Wunderground v.1.15,2013-11-11 06:55:00,
2013-11-11 02:00:00,28.5,24.8,30.39,SW,219,0.0,0.0,86,0.00,,,0.00,Wunderground v.1.15,2013-11-11 07:00:00,
2013-11-11 02:10:00,28.3,24.6,30.39,SW,219,0.0,0.0,86,0.00,,,0.00,Wunderground v.1.15,2013-11-11 07:10:00,
2013-11-11 02:15:00,28.3,24.6,30.39,SW,219,0.0,0.0,86,0.00,,,0.00,Wunderground v.1.15,2013-11-11 07:15:00,
2013-11-11 02:25:00,28.0,24.4,30.39,SW,219,0.0,0.0,86,0.00,,,0.00,Wunderground v.1.15,2013-11-11 07:25:00,
2013-11-11 02:30:00,27.8,24.2,30.39,SW,219,0.0,0.0,86,0.00,,,0.00,Wunderground v.1.15,2013-11-11 07:30:00,
2013-11-11 02:40:00,27.7,24.3,30.40,SW,219,0.0,0.0,87,0.00,,,0.00,Wunderground v.1.15,2013-11-11 07:40:00,
2013-11-11 02:45:00,27.5,24.1,30.39,SW,219,0.0,0.0,87,0.00,,,0.00,Wunderground v.1.15,2013-11-11 07:45:00,
2013-11-11 02:50:00,27.4,24.0,30.39,SW,219,0.0,0.0,87,0.00,,,0.00,Wunderground v.1.15,2013-11-11 07:50:00,
2013-11-11 02:55:00,27.5,24.1,30.39,SW,219,0.0,0.0,87,0.00,,,0.00,Wunderground v.1.15,2013-11-11 07:55:00,
2013-11-11 03:00:00,27.4,24.3,30.39,SW,219,0.0,0.0,88,0.00,,,0.00,Wunderground v.1.15,2013-11-11 08:00:00,
2013-11-11 03:10:00,27.3,24.2,30.39,SW,219,0.0,0.0,88,0.00,,,0.00,Wunderground v.1.15,2013-11-11 08:10:00,
2013-11-11 03:15:00,27.2,24.1,30.39,SW,219,0.0,0.0,88,0.00,,,0.00,Wunderground v.1.15,2013-11-11 08:15:00,
2013-11-11 03:25:00,27.1,24.0,30.39,SW,219,0.0,0.0,88,0.00,,,0.00,Wunderground v.1.15,2013-11-11 08:25:00,
2013-11-11 03:30:00,27.1,24.0,30.39,SW,219,0.0,0.0,88,0.00,,,0.00,Wunderground v.1.15,2013-11-11 08:30:00,
2013-11-11 03:35:00,27.1,24.0,30.39,SW,219,0.0,0.0,88,0.00,,,0.00,Wunderground v.1.15,2013-11-11 08:35:00,
2013-11-11 03:40:00,26.9,23.8,30.39,SW,219,0.0,0.0,88,0.00,,,0.00,Wunderground v.1.15,2013-11-11 08:40:00,
2013-11-11 03:50:00,26.7,23.6,30.39,SW,219,0.0,0.0,88,0.00,,,0.00,Wunderground v.1.15,2013-11-11 08:50:00,
2013-11-11 03:55:00,26.6,23.8,30.39,SW,219,0.0,0.0,89,0.00,,,0.00,Wunderground v.1.15,2013-11-11 08:55:00,
2013-11-11 04:00:00,26.6,23.8,30.39,SW,219,0.0,0.0,89,0.00,,,0.00,Wunderground v.1.15,2013-11-11 09:00:00,
2013-11-11 04:10:00,26.4,23.6,30.39,SW,219,0.0,0.0,89,0.00,,,0.00,Wunderground v.1.15,2013-11-11 09:10:00,
2013-11-11 04:15:00,26.4,23.6,30.39,SW,219,0.0,0.0,89,0.00,,,0.00,Wunderground v.1.15,2013-11-11 09:15:00,
2013-11-11 04:20:00,26.3,23.5,30.39,SW,219,0.0,0.0,89,0.00,,,0.00,Wunderground v.1.15,2013-11-11 09:20:00,
2013-11-11 04:25:00,26.2,23.4,30.39,SW,219,0.0,0.0,89,0.00,,,0.00,Wunderground v.1.15,2013-11-11 09:25:00,
2013-11-11 04:30:00,26.3,23.5,30.39,SW,219,0.0,0.0,89,0.00,,,0.00,Wunderground v.1.15,2013-11-11 09:30:00,
2013-11-11 04:40:00,26.4,23.6,30.39,SW,219,0.0,0.0,89,0.00,,,0.00,Wunderground v.1.15,2013-11-11 09:40:00,
2013-11-11 04:45:00,26.3,23.5,30.39,SW,219,0.0,0.0,89,0.00,,,0.00,Wunderground v.1.15,2013-11-11 09:45:00,
2013-11-11 04:55:00,26.2,23.4,30.39,SW,219,0.0,0.0,89,0.00,,,0.00,Wunderground v.1.15,2013-11-11 09:55:00,
2013-11-11 05:00:00,26.1,23.3,30.40,SW,219,0.0,0.0,89,0.00,,,0.00,Wunderground v.1.15,2013-11-11 10:00:00,
2013-11-11 05:05:00,26.0,23.2,30.40,SW,219,0.0,0.0,89,0.00,,,0.00,Wunderground v.1.15,2013-11-11 10:05:00,
2013-11-11 05:10:00,25.9,23.1,30.40,SW,219,0.0,0.0,89,0.00,,,0.00,Wunderground v.1.15,2013-11-11 10:10:00,
2013-11-11 05:15:00,25.9,23.1,30.40,SW,219,0.0,0.0,89,0.00,,,0.00,Wunderground v.1.15,2013-11-11 10:15:00,
2013-11-11 05:25:00,25.8,23.0,30.40,SW,219,0.0,0.0,89,0.00,,,0.00,Wunderground v.1.15,2013-11-11 10:25:00,
2013-11-11 05:30:00,25.7,23.2,30.40,SW,219,0.0,0.0,90,0.00,,,0.00,Wunderground v.1.15,2013-11-11 10:30:00,
2013-11-11 05:40:00,25.4,22.9,30.40,SW,219,0.0,0.0,90,0.00,,,0.00,Wunderground v.1.15,2013-11-11 10:40:00,
2013-11-11 05:45:00,25.4,22.9,30.39,SW,219,0.0,0.0,90,0.00,,,0.00,Wunderground v.1.15,2013-11-11 10:45:00,
2013-11-11 05:55:00,25.2,22.7,30.40,SW,219,0.0,0.0,90,0.00,,,0.00,Wunderground v.1.15,2013-11-11 10:55:00,
2013-11-11 06:00:00,25.1,22.6,30.39,SW,219,0.0,0.0,90,0.00,,,0.00,Wunderground v.1.15,2013-11-11 11:00:00,
2013-11-11 06:05:00,25.0,22.5,30.39,SW,219,0.0,0.0,90,0.00,,,0.00,Wunderground v.1.15,2013-11-11 11:05:00,
2013-11-11 06:15:00,24.8,22.3,30.39,SW,219,0.0,0.0,90,0.00,,,0.00,Wunderground v.1.15,2013-11-11 11:15:00,
2013-11-11 06:25:00,24.6,22.1,30.39,SW,219,0.0,0.0,90,0.00,,,0.00,Wunderground v.1.15,2013-11-11 11:25:00,
2013-11-11 06:30:00,24.6,22.3,30.39,SW,219,0.0,0.0,91,0.00,,,0.00,Wunderground v.1.15,2013-11-11 11:30:00,
2013-11-11 06:40:00,24.5,22.2,30.39,SW,219,0.0,0.0,91,0.00,,,0.00,Wunderground v.1.15,2013-11-11 11:40:00,
2013-11-11 06:45:00,24.5,22.2,30.40,SW,219,0.0,0.0,91,0.00,,,0.00,Wunderground v.1.15,2013-11-11 11:45:00,
2013-11-11 06:50:00,24.4,22.2,30.39,SW,219,0.0,0.0,91,0.00,,,0.00,Wunderground v.1.15,2013-11-11 11:50:00,
2013-11-11 06:55:00,24.4,22.2,30.39,SW,219,0.0,0.0,91,0.00,,,0.00,Wunderground v.1.15,2013-11-11 11:55:00,
2013-11-11 07:00:00,24.3,22.1,30.39,SW,219,0.0,0.0,91,0.00,,,0.00,Wunderground v.1.15,2013-11-11 12:00:00,
2013-11-11 07:10:00,24.4,22.2,30.39,SW,219,0.0,0.0,91,0.00,,,0.00,Wunderground v.1.15,2013-11-11 12:10:00,
2013-11-11 07:15:00,24.3,22.1,30.39,SW,219,0.0,0.0,91,0.00,,,0.00,Wunderground v.1.15,2013-11-11 12:15:00,
2013-11-11 07:25:00,24.2,22.0,30.39,SW,219,0.0,0.0,91,0.00,,,0.00,Wunderground v.1.15,2013-11-11 12:25:00,
2013-11-11 07:30:00,24.2,22.0,30.39,SW,219,0.0,0.0,91,0.00,,,0.00,Wunderground v.1.15,2013-11-11 12:30:00,
2013-11-11 07:40:00,24.3,22.1,30.40,SW,219,0.0,0.0,91,0.00,,,0.00,Wunderground v.1.15,2013-11-11 12:40:00,
2013-11-11 07:45:00,24.4,22.2,30.40,SW,219,0.0,0.0,91,0.00,,,0.00,Wunderground v.1.15,2013-11-11 12:45:00,
2013-11-11 07:50:00,24.5,22.2,30.40,SW,219,0.0,0.0,91,0.00,,,0.00,Wunderground v.1.15,2013-11-11 12:50:00,
2013-11-11 07:55:00,24.8,22.8,30.40,SW,219,0.0,0.0,92,0.00,,,0.00,Wunderground v.1.15,2013-11-11 12:55:00,
2013-11-11 08:05:00,25.4,23.4,30.40,SSW,208,0.0,0.0,92,0.00,,,0.00,Wunderground v.1.15,2013-11-11 13:05:00,
2013-11-11 08:10:00,25.9,23.9,30.40,SSW,208,0.0,0.0,92,0.00,,,0.00,Wunderground v.1.15,2013-11-11 13:10:00,
2013-11-11 08:15:00,26.3,24.3,30.40,SSW,208,0.0,0.0,92,0.00,,,0.00,Wunderground v.1.15,2013-11-11 13:15:00,
2013-11-11 08:25:00,26.9,24.6,30.40,SSW,208,0.0,0.0,91,0.00,,,0.00,Wunderground v.1.15,2013-11-11 13:25:00,
2013-11-11 08:30:00,27.3,25.0,30.40,SSW,208,0.0,0.0,91,0.00,,,0.00,Wunderground v.1.15,2013-11-11 13:30:00,
2013-11-11 08:35:00,27.6,25.3,30.40,SSW,205,0.0,0.0,91,0.00,,,0.00,Wunderground v.1.15,2013-11-11 13:35:00,
2013-11-11 08:40:00,28.0,25.7,30.40,ESE,117,0.0,1.0,91,0.00,,,0.00,Wunderground v.1.15,2013-11-11 13:40:00,
2013-11-11 08:45:00,28.4,26.1,30.40,SE,140,1.0,2.0,91,0.00,,,0.00,Wunderground v.1.15,2013-11-11 13:45:00,
2013-11-11 08:55:00,29.1,26.5,30.40,SE,140,0.0,0.0,90,0.00,,,0.00,Wunderground v.1.15,2013-11-11 13:55:00,
2013-11-11 09:00:00,29.4,26.8,30.40,SE,130,0.0,0.0,90,0.00,,,0.00,Wunderground v.1.15,2013-11-11 14:00:00,
2013-11-11 09:10:00,30.6,27.7,30.41,ENE,73,0.0,0.0,89,0.00,,,0.00,Wunderground v.1.15,2013-11-11 14:10:00,
2013-11-11 09:15:00,31.3,28.4,30.41,ENE,73,0.0,0.0,89,0.00,,,0.00,Wunderground v.1.15,2013-11-11 14:15:00,
2013-11-11 09:20:00,32.2,28.8,30.41,South,169,0.0,0.0,87,0.00,,,0.00,Wunderground v.1.15,2013-11-11 14:20:00,
2013-11-11 09:25:00,33.1,29.4,30.41,SSE,166,0.0,0.0,86,0.00,,,0.00,Wunderground v.1.15,2013-11-11 14:25:00,
2013-11-11 09:30:00,34.0,30.0,30.41,SE,128,0.0,1.0,85,0.00,,,0.00,Wunderground v.1.15,2013-11-11 14:30:00,
2013-11-11 09:40:00,35.0,29.8,30.41,SE,128,0.0,0.0,81,0.00,,,0.00,Wunderground v.1.15,2013-11-11 14:40:00,
2013-11-11 09:45:00,35.1,29.6,30.40,SE,128,0.0,0.0,80,0.00,,,0.00,Wunderground v.1.15,2013-11-11 14:45:00,
2013-11-11 09:55:00,36.3,30.1,30.40,SSE,165,0.0,0.0,78,0.00,,,0.00,Wunderground v.1.15,2013-11-11 14:55:00,
2013-11-11 10:00:00,36.9,29.7,30.40,SSE,165,0.0,1.0,75,0.00,,,0.00,Wunderground v.1.15,2013-11-11 15:00:00,
2013-11-11 10:05:00,37.5,29.6,30.40,SSE,165,0.0,1.0,73,0.00,,,0.00,Wunderground v.1.15,2013-11-11 15:05:00,
2013-11-11 10:10:00,37.9,29.7,30.40,SSE,165,0.0,1.0,72,0.00,,,0.00,Wunderground v.1.15,2013-11-11 15:10:00,
2013-11-11 10:20:00,38.9,29.6,30.39,SSE,165,0.0,0.0,69,0.00,,,0.00,Wunderground v.1.15,2013-11-11 15:20:00,
2013-11-11 10:25:00,39.6,29.2,30.39,SSE,165,0.0,0.0,66,0.00,,,0.00,Wunderground v.1.15,2013-11-11 15:25:00,
2013-11-11 10:30:00,40.3,30.6,30.39,South,175,0.0,0.0,68,0.00,,,0.00,Wunderground v.1.15,2013-11-11 15:30:00,
2013-11-11 10:40:00,41.4,30.9,30.38,South,182,0.0,0.0,66,0.00,,,0.00,Wunderground v.1.15,2013-11-11 15:40:00,
2013-11-11 10:45:00,42.0,31.5,30.38,South,189,0.0,0.0,66,0.00,,,0.00,Wunderground v.1.15,2013-11-11 15:45:00,
2013-11-11 10:50:00,42.6,30.1,30.38,SW,221,0.0,0.0,61,0.00,,,0.00,Wunderground v.1.15,2013-11-11 15:50:00,
2013-11-11 10:55:00,42.6,30.9,30.38,SW,221,1.0,1.0,63,0.00,,,0.00,Wunderground v.1.15,2013-11-11 15:55:00,
2013-11-11 11:00:00,43.1,29.7,30.37,SW,221,1.0,1.0,59,0.00,,,0.00,Wunderground v.1.15,2013-11-11 16:00:00,
2013-11-11 11:10:00,44.5,30.2,30.37,SW,221,1.0,1.0,57,0.00,,,0.00,Wunderground v.1.15,2013-11-11 16:10:00,
2013-11-11 11:20:00,45.5,29.8,30.36,SW,221,1.0,3.0,54,0.00,,,0.00,Wunderground v.1.15,2013-11-11 16:20:00,
2013-11-11 11:25:00,45.8,28.7,30.36,SW,221,1.0,3.0,51,0.00,,,0.00,Wunderground v.1.15,2013-11-11 16:25:00,
2013-11-11 11:30:00,46.5,29.3,30.35,SW,221,1.0,1.0,51,0.00,,,0.00,Wunderground v.1.15,2013-11-11 16:30:00,
2013-11-11 11:40:00,47.9,30.6,30.34,SW,221,0.0,1.0,51,0.00,,,0.00,Wunderground v.1.15,2013-11-11 16:40:00,
2013-11-11 11:45:00,48.3,29.0,30.34,SW,221,1.0,1.0,47,0.00,,,0.00,Wunderground v.1.15,2013-11-11 16:45:00,
2013-11-11 11:55:00,48.8,30.0,30.33,SW,221,1.0,2.0,48,0.00,,,0.00,Wunderground v.1.15,2013-11-11 16:55:00,
2013-11-11 12:00:00,49.1,27.0,30.32,SW,221,1.0,3.0,42,0.00,,,0.00,Wunderground v.1.15,2013-11-11 17:00:00,
2013-11-11 12:10:00,50.0,28.4,30.32,SW,222,2.0,2.0,43,0.00,,,0.00,Wunderground v.1.15,2013-11-11 17:10:00,
2013-11-11 12:15:00,50.5,27.7,30.31,SW,222,1.0,2.0,41,0.00,,,0.00,Wunderground v.1.15,2013-11-11 17:15:00,
2013-11-11 12:20:00,51.1,27.0,30.31,SW,222,2.0,2.0,39,0.00,,,0.00,Wunderground v.1.15,2013-11-11 17:20:00,
2013-11-11 12:25:00,51.7,25.6,30.31,SW,222,2.0,2.0,36,0.00,,,0.00,Wunderground v.1.15,2013-11-11 17:25:00,
2013-11-11 12:30:00,52.3,28.1,30.31,SW,222,1.0,1.0,39,0.00,,,0.00,Wunderground v.1.15,2013-11-11 17:30:00,
2013-11-11 12:40:00,52.3,31.6,30.29,SW,222,1.0,2.0,45,0.00,,,0.00,Wunderground v.1.15,2013-11-11 17:40:00,
2013-11-11 12:45:00,52.7,31.4,30.29,SW,231,1.0,3.0,44,0.00,,,0.00,Wunderground v.1.15,2013-11-11 17:45:00,
2013-11-11 12:50:00,53.3,30.8,30.29,WSW,255,2.0,3.0,42,0.00,,,0.00,Wunderground v.1.15,2013-11-11 17:50:00,
2013-11-11 12:55:00,54.8,29.0,30.29,NNW,329,2.0,5.0,37,0.00,,,0.00,Wunderground v.1.15,2013-11-11 17:55:00,
2013-11-11 13:00:00,56.4,26.9,30.28,NW,318,2.0,2.0,32,0.00,,,0.00,Wunderground v.1.15,2013-11-11 18:00:00,
2013-11-11 13:10:00,57.8,29.6,30.28,NNW,334,3.0,3.0,34,0.00,,,0.00,Wunderground v.1.15,2013-11-11 18:10:00,
2013-11-11 13:15:00,57.8,24.9,30.27,WNW,284,2.0,3.0,28,0.00,,,0.00,Wunderground v.1.15,2013-11-11 18:15:00,
2013-11-11 13:25:00,58.0,25.0,30.27,SW,230,2.0,3.0,28,0.00,,,0.00,Wunderground v.1.15,2013-11-11 18:25:00,
2013-11-11 13:30:00,58.0,27.5,30.27,WSW,243,1.0,1.0,31,0.00,,,0.00,Wunderground v.1.15,2013-11-11 18:30:00,
2013-11-11 13:40:00,58.4,25.4,30.27,WSW,255,1.0,1.0,28,0.00,,,0.00,Wunderground v.1.15,2013-11-11 18:40:00,
2013-11-11 13:45:00,58.6,27.2,30.26,WSW,244,1.0,1.0,30,0.00,,,0.00,Wunderground v.1.15,2013-11-11 18:45:00,
2013-11-11 13:50:00,59.1,25.1,30.26,SW,223,2.0,2.0,27,0.00,,,0.00,Wunderground v.1.15,2013-11-11 18:50:00,
2013-11-11 13:55:00,59.5,25.5,30.26,West,281,2.0,2.0,27,0.00,,,0.00,Wunderground v.1.15,2013-11-11 18:55:00,
2013-11-11 14:05:00,59.5,27.2,30.25,West,268,2.0,2.0,29,0.00,,,0.00,Wunderground v.1.15,2013-11-11 19:05:00,
2013-11-11 14:10:00,60.0,25.9,30.25,WSW,246,3.0,3.0,27,0.00,,,0.00,Wunderground v.1.15,2013-11-11 19:10:00,
2013-11-11 14:15:00,59.7,29.0,30.25,SW,228,3.0,3.0,31,0.00,,,0.00,Wunderground v.1.15,2013-11-11 19:15:00,
2013-11-11 14:25:00,60.1,24.1,30.25,SW,234,2.0,4.0,25,0.00,,,0.00,Wunderground v.1.15,2013-11-11 19:25:00,
2013-11-11 14:30:00,59.9,28.4,30.25,SSW,209,2.0,2.0,30,0.00,,,0.00,Wunderground v.1.15,2013-11-11 19:30:00,
2013-11-11 14:40:00,58.8,25.7,30.24,WSW,255,2.0,2.0,28,0.00,,,0.00,Wunderground v.1.15,2013-11-11 19:40:00,
2013-11-11 14:45:00,58.5,25.5,30.24,SW,227,3.0,3.0,28,0.00,,,0.00,Wunderground v.1.15,2013-11-11 19:45:00,
2013-11-11 14:50:00,58.5,27.9,30.24,SW,227,2.0,2.0,31,0.00,,,0.00,Wunderground v.1.15,2013-11-11 19:50:00,
2013-11-11 14:55:00,58.4,27.1,30.24,SW,225,2.0,3.0,30,0.00,,,0.00,Wunderground v.1.15,2013-11-11 19:55:00,
2013-11-11 15:00:00,57.9,26.6,30.24,WSW,237,2.0,3.0,30,0.00,,,0.00,Wunderground v.1.15,2013-11-11 20:00:00,
2013-11-11 15:10:00,56.8,26.5,30.24,SW,223,3.0,3.0,31,0.00,,,0.00,Wunderground v.1.15,2013-11-11 20:10:00,
2013-11-11 15:15:00,56.9,24.9,30.24,West,274,2.0,3.0,29,0.00,,,0.00,Wunderground v.1.15,2013-11-11 20:15:00,
2013-11-11 15:25:00,56.4,26.1,30.24,SW,235,2.0,2.0,31,0.00,,,0.00,Wunderground v.1.15,2013-11-11 20:25:00,
2013-11-11 15:30:00,57.0,21.5,30.23,West,262,3.0,4.0,25,0.00,,,0.00,Wunderground v.1.15,2013-11-11 20:30:00,
2013-11-11 15:40:00,57.6,20.0,30.24,WNW,292,3.0,3.0,23,0.00,,,0.00,Wunderground v.1.15,2013-11-11 20:40:00,
2013-11-11 15:45:00,58.1,23.3,30.24,NW,309,3.0,3.0,26,0.00,,,0.00,Wunderground v.1.15,2013-11-11 20:45:00,
2013-11-11 15:55:00,57.8,23.1,30.23,SW,234,2.0,2.0,26,0.00,,,0.00,Wunderground v.1.15,2013-11-11 20:55:00,
2013-11-11 16:00:00,57.7,22.1,30.23,West,261,2.0,4.0,25,0.00,,,0.00,Wunderground v.1.15,2013-11-11 21:00:00,
2013-11-11 16:05:00,57.6,22.9,30.23,West,261,2.0,4.0,26,0.00,,,0.00,Wunderground v.1.15,2013-11-11 21:05:00,
2013-11-11 16:10:00,57.2,26.0,30.23,SW,228,2.0,2.0,30,0.00,,,0.00,Wunderground v.1.15,2013-11-11 21:10:00,
2013-11-11 16:15:00,56.2,24.3,30.23,WSW,238,2.0,2.0,29,0.00,,,0.00,Wunderground v.1.15,2013-11-11 21:15:00,
2013-11-11 16:25:00,55.1,26.5,30.23,SW,219,2.0,4.0,33,0.00,,,0.00,Wunderground v.1.15,2013-11-11 21:25:00,
2013-11-11 16:30:00,54.6,26.0,30.23,SW,221,2.0,2.0,33,0.00,,,0.00,Wunderground v.1.15,2013-11-11 21:30:00,
2013-11-11 16:40:00,54.0,26.2,30.23,SW,225,1.0,2.0,34,0.00,,,0.00,Wunderground v.1.15,2013-11-11 21:40:00,
2013-11-11 16:45:00,53.9,26.1,30.23,SW,227,1.0,2.0,34,0.00,,,0.00,Wunderground v.1.15,2013-11-11 21:45:00,
2013-11-11 16:50:00,53.6,26.6,30.22,SW,236,2.0,2.0,35,0.00,,,0.00,Wunderground v.1.15,2013-11-11 21:50:00,
2013-11-11 16:55:00,53.3,27.7,30.23,SW,232,1.0,2.0,37,0.00,,,0.00,Wunderground v.1.15,2013-11-11 21:55:00,
2013-11-11 17:00:00,52.8,25.9,30.23,SW,236,1.0,1.0,35,0.00,,,0.00,Wunderground v.1.15,2013-11-11 22:00:00,
2013-11-11 17:10:00,51.6,28.0,30.23,SW,236,0.0,0.0,40,0.00,,,0.00,Wunderground v.1.15,2013-11-11 22:10:00,
2013-11-11 17:15:00,50.9,27.4,30.23,SW,236,0.0,0.0,40,0.00,,,0.00,Wunderground v.1.15,2013-11-11 22:15:00,
2013-11-11 17:20:00,50.1,29.6,30.23,SW,236,0.0,1.0,45,0.00,,,0.00,Wunderground v.1.15,2013-11-11 22:20:00,
2013-11-11 17:25:00,49.1,29.2,30.23,SW,236,0.0,1.0,46,0.00,,,0.00,Wunderground v.1.15,2013-11-11 22:25:00,
2013-11-11 17:30:00,48.3,30.0,30.23,SW,236,0.0,0.0,49,0.00,,,0.00,Wunderground v.1.15,2013-11-11 22:30:00,
2013-11-11 17:35:00,47.3,30.5,30.23,SW,236,0.0,0.0,52,0.00,,,0.00,Wunderground v.1.15,2013-11-11 22:35:00,
2013-11-11 17:45:00,46.1,28.5,30.23,SW,236,1.0,1.0,50,0.00,,,0.00,Wunderground v.1.15,2013-11-11 22:45:00,
2013-11-11 17:50:00,46.1,29.4,30.23,SW,225,1.0,-999.0,52,0.00,,,0.00,Wunderground v.1.15,2013-11-11 22:50:00,
2013-11-11 17:55:00,45.0,30.2,30.23,SW,236,0.0,1.0,56,0.00,,,0.00,Wunderground v.1.15,2013-11-11 22:55:00,
2013-11-11 18:00:00,44.6,30.3,30.23,SW,236,0.0,0.0,57,0.00,,,0.00,Wunderground v.1.15,2013-11-11 23:00:00,
2013-11-11 18:05:00,44.6,30.3,30.23,SW,225,0.0,-999.0,57,0.00,,,0.00,Wunderground v.1.15,2013-11-11 23:05:00,
2013-11-11 18:10:00,43.5,30.5,30.23,SW,225,0.0,-999.0,60,0.00,,,0.00,Wunderground v.1.15,2013-11-11 23:10:00,
2013-11-11 18:15:00,43.5,30.5,30.23,SW,225,0.0,-999.0,60,0.00,,,0.00,Wunderground v.1.15,2013-11-11 23:15:00,
2013-11-11 18:20:00,43.5,30.5,30.23,SW,225,0.0,-999.0,60,0.00,,,0.00,Wunderground v.1.15,2013-11-11 23:20:00,
2013-11-11 18:25:00,42.4,29.9,30.24,SW,225,0.0,-999.0,61,0.00,,,0.00,Wunderground v.1.15,2013-11-11 23:25:00,
2013-11-11 18:30:00,42.4,29.9,30.24,SW,225,0.0,-999.0,61,0.00,,,0.00,Wunderground v.1.15,2013-11-11 23:30:00,
2013-11-11 18:35:00,42.4,29.9,30.24,SW,225,0.0,-999.0,61,0.00,,,0.00,Wunderground v.1.15,2013-11-11 23:35:00,
2013-11-11 18:40:00,41.7,30.4,30.24,SW,225,0.0,-999.0,64,0.00,,,0.00,Wunderground v.1.15,2013-11-11 23:40:00,
2013-11-11 18:45:00,41.7,30.4,30.24,SW,225,0.0,-999.0,64,0.00,,,0.00,Wunderground v.1.15,2013-11-11 23:45:00,
2013-11-11 18:50:00,41.7,30.4,30.24,SW,225,0.0,-999.0,64,0.00,,,0.00,Wunderground v.1.15,2013-11-11 23:50:00,
2013-11-11 18:55:00,40.9,29.7,30.24,N/A,-737280,0.0,-999.0,64,0.00,,,0.00,Wunderground v.1.15,2013-11-11 23:55:00,
2013-11-11 19:00:00,40.9,29.7,30.24,N/A,-737280,0.0,-999.0,64,0.00,,,0.00,Wunderground v.1.15,2013-11-12 00:00:00,
2013-11-11 19:05:00,40.9,29.7,30.24,N/A,-737280,0.0,-999.0,64,0.00,,,0.00,Wunderground v.1.15,2013-11-12 00:05:00,
2013-11-11 19:10:00,40.1,30.0,30.24,N/A,-737280,0.0,-999.0,67,0.00,,,0.00,Wunderground v.1.15,2013-11-12 00:10:00,
2013-11-11 19:15:00,40.1,30.0,30.24,N/A,-737280,0.0,-999.0,67,0.00,,,0.00,Wunderground v.1.15,2013-11-12 00:15:00,
2013-11-11 19:20:00,40.1,30.0,30.24,N/A,-737280,0.0,-999.0,67,0.00,,,0.00,Wunderground v.1.15,2013-11-12 00:20:00,
2013-11-11 19:25:00,39.5,29.4,30.24,N/A,-737280,0.0,-999.0,67,0.00,,,0.00,Wunderground v.1.15,2013-11-12 00:25:00,
2013-11-11 19:30:00,39.5,29.4,30.24,N/A,-737280,0.0,-999.0,67,0.00,,,0.00,Wunderground v.1.15,2013-11-12 00:30:00,
2013-11-11 19:35:00,39.5,29.4,30.24,N/A,-737280,0.0,-999.0,67,0.00,,,0.00,Wunderground v.1.15,2013-11-12 00:35:00,
2013-11-11 19:40:00,38.9,29.6,30.24,SW,225,0.0,-999.0,69,0.00,,,0.00,Wunderground v.1.15,2013-11-12 00:40:00,
2013-11-11 19:45:00,38.9,29.6,30.24,SW,225,0.0,-999.0,69,0.00,,,0.00,Wunderground v.1.15,2013-11-12 00:45:00,
2013-11-11 19:50:00,38.9,29.6,30.24,SW,225,0.0,-999.0,69,0.00,,,0.00,Wunderground v.1.15,2013-11-12 00:50:00,
2013-11-11 19:55:00,38.3,29.0,30.24,SW,225,0.0,-999.0,69,0.00,,,0.00,Wunderground v.1.15,2013-11-12 00:55:00,
2013-11-11 20:00:00,38.3,29.0,30.24,SW,225,0.0,-999.0,69,0.00,,,0.00,Wunderground v.1.15,2013-11-12 01:00:00,
2013-11-11 20:05:00,38.3,29.0,30.24,SW,225,0.0,-999.0,69,0.00,,,0.00,Wunderground v.1.15,2013-11-12 01:05:00,
2013-11-11 20:10:00,37.8,29.6,30.23,SW,225,0.0,-999.0,72,0.00,,,0.00,Wunderground v.1.15,2013-11-12 01:10:00,
2013-11-11 20:15:00,37.8,29.6,30.23,SW,225,0.0,-999.0,72,0.00,,,0.00,Wunderground v.1.15,2013-11-12 01:15:00,
2013-11-11 20:20:00,37.8,29.6,30.23,SW,225,0.0,-999.0,72,0.00,,,0.00,Wunderground v.1.15,2013-11-12 01:20:00,
2013-11-11 20:25:00,37.2,29.0,30.23,SW,225,0.0,-999.0,72,0.00,,,0.00,Wunderground v.1.15,2013-11-12 01:25:00,
2013-11-11 20:30:00,37.2,29.0,30.23,SW,225,0.0,-999.0,72,0.00,,,0.00,Wunderground v.1.15,2013-11-12 01:30:00,
2013-11-11 20:35:00,37.2,29.0,30.23,SW,225,0.0,-999.0,72,0.00,,,0.00,Wunderground v.1.15,2013-11-12 01:35:00,
2013-11-11 20:40:00,37.0,29.1,30.24,SW,225,0.0,-999.0,73,0.00,,,0.00,Wunderground v.1.15,2013-11-12 01:40:00,
2013-11-11 20:45:00,37.0,29.1,30.24,SW,225,0.0,-999.0,73,0.00,,,0.00,Wunderground v.1.15,2013-11-12 01:45:00,
2013-11-11 20:50:00,37.0,29.1,30.24,SW,225,0.0,-999.0,73,0.00,,,0.00,Wunderground v.1.15,2013-11-12 01:50:00,
2013-11-11 20:55:00,36.5,29.0,30.24,SW,225,0.0,-999.0,74,0.00,,,0.00,Wunderground v.1.15,2013-11-12 01:55:00,
2013-11-11 21:00:00,36.5,29.0,30.24,SW,225,0.0,-999.0,74,0.00,,,0.00,Wunderground v.1.15,2013-11-12 02:00:00,
2013-11-11 21:05:00,36.5,29.0,30.24,SW,225,0.0,-999.0,74,0.00,,,0.00,Wunderground v.1.15,2013-11-12 02:05:00,
2013-11-11 21:10:00,35.7,28.6,30.24,SW,225,0.0,-999.0,75,0.00,,,0.00,Wunderground v.1.15,2013-11-12 02:10:00,
2013-11-11 21:15:00,35.7,28.6,30.24,SW,225,0.0,-999.0,75,0.00,,,0.00,Wunderground v.1.15,2013-11-12 02:15:00,
2013-11-11 21:20:00,35.7,28.6,30.24,SW,225,0.0,-999.0,75,0.00,,,0.00,Wunderground v.1.15,2013-11-12 02:20:00,
2013-11-11 21:25:00,35.5,29.0,30.25,SW,225,0.0,-999.0,77,0.00,,,0.00,Wunderground v.1.15,2013-11-12 02:25:00,
2013-11-11 21:30:00,35.5,29.0,30.25,SW,225,0.0,-999.0,77,0.00,,,0.00,Wunderground v.1.15,2013-11-12 02:30:00,
2013-11-11 21:35:00,35.5,29.0,30.25,SW,225,0.0,-999.0,77,0.00,,,0.00,Wunderground v.1.15,2013-11-12 02:35:00,
2013-11-11 21:40:00,35.4,29.2,30.25,SW,225,0.0,-999.0,78,0.00,,,0.00,Wunderground v.1.15,2013-11-12 02:40:00,
2013-11-11 21:45:00,35.4,29.2,30.25,SW,225,0.0,-999.0,78,0.00,,,0.00,Wunderground v.1.15,2013-11-12 02:45:00,
2013-11-11 21:50:00,35.4,29.2,30.25,SW,225,0.0,-999.0,78,0.00,,,0.00,Wunderground v.1.15,2013-11-12 02:50:00,
2013-11-11 21:55:00,35.9,30.0,30.25,SW,225,0.0,-999.0,79,0.00,,,0.00,Wunderground v.1.15,2013-11-12 02:55:00,
2013-11-11 22:00:00,35.9,30.0,30.25,SW,225,0.0,-999.0,79,0.00,,,0.00,Wunderground v.1.15,2013-11-12 03:00:00,
2013-11-11 22:05:00,35.9,30.0,30.25,SW,225,0.0,-999.0,79,0.00,,,0.00,Wunderground v.1.15,2013-11-12 03:05:00,
2013-11-11 22:10:00,36.2,30.6,30.25,SW,225,0.0,-999.0,80,0.00,,,0.00,Wunderground v.1.15,2013-11-12 03:10:00,
2013-11-11 22:15:00,36.2,30.6,30.25,SW,225,0.0,-999.0,80,0.00,,,0.00,Wunderground v.1.15,2013-11-12 03:15:00,
2013-11-11 22:20:00,36.2,30.6,30.25,SW,225,0.0,-999.0,80,0.00,,,0.00,Wunderground v.1.15,2013-11-12 03:20:00,
2013-11-11 22:25:00,36.6,31.0,30.25,SW,225,0.0,-999.0,80,0.00,,,0.00,Wunderground v.1.15,2013-11-12 03:25:00,
2013-11-11 22:30:00,36.6,31.0,30.25,SW,225,0.0,-999.0,80,0.00,,,0.00,Wunderground v.1.15,2013-11-12 03:30:00,
2013-11-11 22:35:00,36.6,31.0,30.25,SW,225,0.0,-999.0,80,0.00,,,0.00,Wunderground v.1.15,2013-11-12 03:35:00,
2013-11-11 22:40:00,36.6,30.7,30.25,N/A,-737280,0.0,-999.0,79,0.00,,,0.00,Wunderground v.1.15,2013-11-12 03:40:00,
2013-11-11 22:45:00,36.6,30.7,30.25,N/A,-737280,0.0,-999.0,79,0.00,,,0.00,Wunderground v.1.15,2013-11-12 03:45:00,
2013-11-11 22:50:00,36.6,30.7,30.25,N/A,-737280,0.0,-999.0,79,0.00,,,0.00,Wunderground v.1.15,2013-11-12 03:50:00,
2013-11-11 22:55:00,36.7,30.8,30.24,SW,225,0.0,-999.0,79,0.00,,,0.00,Wunderground v.1.15,2013-11-12 03:55:00,
2013-11-11 23:00:00,36.7,30.8,30.24,SW,225,0.0,-999.0,79,0.00,,,0.00,Wunderground v.1.15,2013-11-12 04:00:00,
2013-11-11 23:05:00,36.7,30.8,30.24,SW,225,0.0,-999.0,79,0.00,,,0.00,Wunderground v.1.15,2013-11-12 04:05:00,
2013-11-11 23:10:00,37.1,31.5,30.24,N/A,-737280,0.0,-999.0,80,0.00,,,0.00,Wunderground v.1.15,2013-11-12 04:10:00,
2013-11-11 23:15:00,37.1,31.5,30.24,N/A,-737280,0.0,-999.0,80,0.00,,,0.00,Wunderground v.1.15,2013-11-12 04:15:00,
2013-11-11 23:20:00,37.1,31.5,30.24,N/A,-737280,0.0,-999.0,80,0.00,,,0.00,Wunderground v.1.15,2013-11-12 04:20:00,
2013-11-11 23:25:00,37.4,31.8,30.24,N/A,-737280,0.0,-999.0,80,0.00,,,0.00,Wunderground v.1.15,2013-11-12 04:25:00,
2013-11-11 23:30:00,37.4,31.8,30.24,N/A,-737280,0.0,-999.0,80,0.00,,,0.00,Wunderground v.1.15,2013-11-12 04:30:00,
2013-11-11 23:35:00,37.4,31.8,30.24,N/A,-737280,0.0,-999.0,80,0.00,,,0.00,Wunderground v.1.15,2013-11-12 04:35:00,
2013-11-11 23:40:00,37.7,32.1,30.24,N/A,-737280,0.0,-999.0,80,0.00,,,0.00,Wunderground v.1.15,2013-11-12 04:40:00,
2013-11-11 23:45:00,37.7,32.1,30.24,N/A,-737280,0.0,-999.0,80,0.00,,,0.00,Wunderground v.1.15,2013-11-12 04:45:00,
2013-11-11 23:55:00,38.4,31.5,30.24,SW,225,0.0,-999.0,76,0.00,,,0.00,Wunderground v.1.15,2013-11-12 04:55:00,